Weather History for Fort Worth Alliance, TX

Change the Weather History Date:

Wednesday, December 12, 2012

  Actual Average Record
Temperature  
Mean Temperature 37 °F -  
Max Temperature 57 °F 56 °F 73 °F (2004)
Min Temperature 17 °F 34 °F 17 °F (2012)
Degree Days  
Heating Degree Days 28    
Moisture  
Dew Point 17 °F    
Average Humidity 45    
Maximum Humidity 81    
Minimum Humidity 21    
Precipitation  
Precipitation 0.00 in - - ()
Sea Level Pressure  
Sea Level Pressure 30.26 in    
Wind  
Wind Speed 4 mph (SSE)    
Max Wind Speed 14 mph    
Max Gust Speed 18 mph    
Visibility 10 miles    
Events      
Averages and records for this station are not official NWS values.
T = Trace of Precipitation, MM = Missing Value Source: NWS Daily Summary

Daily Weather History Graph

Daily Weather History Graph

Search for Another Location

Airport:

Trip Planner

Search our weather history database for the weather conditions in past years. The results will help you decide how hot, cold, wet, or windy it might be!

Date:

Astronomy

Dec. 12, 2012 Rise Set
Actual Time 7:23 AM CST 5:23 PM CST
Civil Twilight 6:55 AM CST 5:50 PM CST
Nautical Twilight 6:24 AM CST 6:21 PM CST
Astronomical Twilight 5:54 AM CST 6:51 PM CST
Moon 6:29 AM CST (12/12) 5:00 PM CST (12/12)
Length of Visible Light 10h 55m
Length of Day
10h 00m
Waning Crescent, 1% of the Moon is Illuminated
Dec 12
Waning Crescent
Dec 13
New
Dec 19
First Quarter
Dec 28
Full
Jan 4
Last Quarter

Hourly Weather History & Observations

Time (CST) Temp. Windchill Dew Point Humidity Pressure Visibility Wind Dir Wind Speed Gust Speed Precip Events Conditions
12:53 AM 19.0 °F - 10.9 °F 71% 30.26 in 10.0 mi Calm Calm - N/A   Clear
1:53 AM 21.9 °F - 12.0 °F 66% 30.26 in 10.0 mi Calm Calm - N/A   Clear
2:53 AM 21.0 °F - 12.0 °F 68% 30.27 in 10.0 mi Calm Calm - N/A   Clear
3:53 AM 19.9 °F - 12.0 °F 71% 30.27 in 10.0 mi Calm Calm - N/A   Clear
4:53 AM 17.1 °F - 10.9 °F 77% 30.28 in 10.0 mi Calm Calm - N/A   Clear
6:53 AM 19.9 °F - 12.9 °F 74% 30.30 in 10.0 mi Calm Calm - N/A   Clear
7:53 AM 19.0 °F - 14.0 °F 81% 30.33 in 10.0 mi Calm Calm - N/A   Clear
8:53 AM 37.0 °F 33.3 °F 23.0 °F 57% 30.33 in 10.0 mi SSE 4.6 mph - N/A   Clear
9:53 AM 43.0 °F 37.2 °F 21.0 °F 42% 30.34 in 10.0 mi South 10.4 mph 17.3 mph N/A   Clear
10:53 AM 48.0 °F - 19.9 °F 33% 30.33 in 10.0 mi SSE 13.8 mph - N/A   Clear
11:53 AM 52.0 °F - 19.0 °F 27% 30.31 in 10.0 mi SSW 6.9 mph - N/A   Clear
12:53 PM 55.0 °F - 17.1 °F 23% 30.27 in 10.0 mi South 11.5 mph 17.3 mph N/A   Clear
1:53 PM 57.0 °F - 17.1 °F 21% 30.22 in 10.0 mi South 13.8 mph 18.4 mph N/A   Clear
2:53 PM 57.9 °F - 18.0 °F 21% 30.22 in 10.0 mi South 10.4 mph - N/A   Clear
3:53 PM 57.0 °F - 19.0 °F 23% 30.20 in 10.0 mi SSE 11.5 mph - N/A   Clear
4:53 PM 54.0 °F - 19.0 °F 25% 30.20 in 10.0 mi SSE 12.7 mph - N/A   Clear
5:53 PM 48.9 °F - 19.0 °F 31% 30.21 in 10.0 mi SSE 5.8 mph - N/A   Clear
6:53 PM 46.9 °F - 21.0 °F 36% 30.23 in 10.0 mi SE 5.8 mph - N/A   Clear
7:53 PM 46.9 °F - 21.0 °F 36% 30.24 in 10.0 mi SE 10.4 mph - N/A   Clear
8:53 PM 45.0 °F 40.1 °F 21.0 °F 39% 30.23 in 10.0 mi SSE 9.2 mph - N/A   Clear
9:53 PM 45.0 °F 40.1 °F 21.0 °F 39% 30.24 in 10.0 mi SSE 9.2 mph - N/A   Clear
10:53 PM 44.1 °F 39.0 °F 19.9 °F 38% 30.25 in 10.0 mi SSE 9.2 mph - N/A   Clear
11:53 PM 39.9 °F 37.8 °F 19.9 °F 45% 30.25 in 10.0 mi SSE 3.5 mph - N/A   Clear